Probability
2 7 19 29 26 10 1 0 0 0 0 0 0 0 0 0 0 0 1 1 1 0 1 2 3 3 2 3 3 3 3 3 3 3 3 3 3 3 3 3 3 3 3 3 3 3 3 3 3
3 9 20 25 18 6 0 0 0 0 0 0 0 0 0 0 0 0 0 0 0 0 1 2 3 3 3 3 3 3 3 3 3 3 3 3 3 3 3 3 3 3 3 3 3 3 3 3 3
4 10 18 16 7 1 0 0 0 0 0 0 0 0 0 0 0 0 0 0 1 2 3 3 3 3 3 3 3 3 3 3 3 3 3 3 3 3 3 3 3 3 3 3 3 3 3 3 3
6 9 11 7 2 0 0 0 0 0 0 0 0 0 0 0 0 0 0 1 3 4 3 3 3 2 2 3 3 3 3 3 3 3 3 3 3 3 3 3 3 3 3 3 3 3 3 2 2
6 6 4 2 0 0 0 0 0 0 0 0 0 0 0 0 0 0 1 3 5 5 4 3 3 1 1 2 3 3 3 3 3 3 3 3 3 3 3 3 3 3 3 3 3 3 1 1 1
5 2 0 0 0 0 0 0 0 0 0 0 1 1 1 1 0 0 1 4 7 7 6 5 3 1 0 1 1 2 3 3 3 2 3 3 3 3 3 3 3 3 3 3 3 2 1 0 0
3 1 0 0 0 0 0 0 0 0 0 0 1 2 3 3 1 1 2 5 8 9 7 5 4 2 1 0 0 1 2 2 1 1 1 2 3 3 3 3 3 3 2 2 2 1 0 0 0
1 0 0 0 0 0 0 0 0 0 0 0 1 4 8 6 3 3 3 5 7 7 7 6 5 3 1 0 0 0 1 1 0 0 1 2 2 2 2 2 2 1 1 1 1 0 0 0 0
0 0 0 0 0 0 0 0 1 0 0 1 3 7 10 8 5 5 6 6 6 7 7 6 5 4 2 0 0 0 0 0 0 1 2 2 1 1 1 0 0 0 0 0 0 0 0 0 0
0 0 0 0 0 0 0 0 0 0 0 2 7 11 10 8 6 7 8 8 8 8 8 7 6 4 2 0 0 0 0 0 0 2 3 2 1 0 0 0 0 0 0 0 0 0 0 0 0
0 0 0 0 0 0 0 0 0 0 1 5 10 11 9 8 8 8 10 11 11 10 9 8 7 5 2 0 1 2 1 1 1 2 2 2 1 1 1 1 1 0 0 0 0 0 0 0 0
0 0 0 0 0 0 0 0 0 0 2 6 9 10 9 9 9 9 11 13 13 11 10 10 9 7 4 3 3 2 2 2 3 4 3 3 2 2 2 2 2 1 1 0 0 0 0 0 0
0 0 0 0 0 0 0 0 0 1 3 7 10 12 11 10 11 11 12 14 14 11 11 12 12 11 9 7 4 2 3 4 6 6 5 3 3 3 3 3 3 3 2 1 1 1 0 0 0
0 0 0 0 0 0 0 0 0 2 5 9 13 15 14 12 13 15 17 19 17 14 13 15 17 16 13 9 5 3 4 5 6 8 7 4 3 4 3 3 3 3 3 2 1 1 1 1 0
0 0 0 0 0 0 0 1 1 2 5 10 14 17 17 17 18 20 24 27 24 21 20 21 20 19 15 10 6 4 5 5 7 8 7 4 4 4 4 3 3 3 3 3 3 2 2 2 1
0 0 0 0 0 0 0 1 1 1 4 8 13 18 21 23 24 26 31 33 30 30 31 26 22 22 19 13 9 7 7 8 9 6 4 4 4 5 4 3 3 4 3 3 3 4 3 3 3
0 0 0 0 0 0 0 1 1 2 3 7 13 20 25 28 31 35 38 38 38 41 39 32 27 27 23 18 14 13 13 15 12 8 5 5 5 5 5 4 5 4 4 3 4 4 4 3 3
0 0 0 0 0 0 1 1 2 2 3 6 13 21 28 32 38 44 45 45 49 51 47 38 32 30 25 21 20 19 19 19 16 12 12 11 8 6 5 7 7 6 5 4 4 4 4 3 3
0 0 0 0 0 0 1 2 2 1 1 4 12 21 29 37 47 53 53 55 60 62 56 46 38 34 27 21 22 23 21 19 16 15 16 17 14 10 8 9 10 10 8 7 6 5 4 3 3
0 0 0 0 0 0 1 2 2 1 0 3 9 18 27 39 53 62 62 63 67 70 65 55 47 41 32 25 22 23 22 19 17 17 19 21 20 17 13 13 13 13 11 9 8 7 5 4 3
0 0 0 0 0 0 0 1 2 2 1 3 8 16 24 37 56 69 71 68 69 72 70 61 54 48 41 32 28 27 26 23 20 19 20 22 22 20 17 16 16 15 11 8 8 9 8 5 4
0 0 0 0 0 0 0 1 3 3 3 4 9 15 22 35 56 73 77 73 71 70 70 67 61 55 49 42 37 35 33 28 23 20 21 22 22 19 18 19 20 17 13 11 12 13 12 8 5
0 0 0 0 0 0 0 0 2 4 4 5 10 17 24 36 56 74 80 78 74 70 69 69 66 61 56 48 42 39 36 31 25 23 24 25 22 18 17 21 23 21 18 17 17 18 14 9 6
0 0 0 0 0 0 0 0 1 2 4 6 10 18 27 39 56 72 80 81 77 72 68 68 68 67 62 52 44 42 38 32 27 27 29 27 23 20 19 22 24 22 20 20 20 19 14 10 9
0 0 0 0 0 0 0 0 1 3 6 7 11 19 30 43 57 70 79 83 80 75 71 70 71 71 66 56 49 46 41 34 31 30 30 27 23 22 23 24 25 24 21 19 18 16 14 15 16
0 0 0 0 0 0 0 1 3 6 8 9 11 19 30 42 55 67 75 79 79 76 74 74 74 71 68 61 54 49 43 37 33 32 31 28 23 22 25 26 26 26 22 18 15 14 14 18 21
0 0 0 0 0 0 0 1 5 7 8 10 13 19 27 38 50 59 64 67 71 71 70 73 74 71 68 64 58 52 46 41 37 37 39 34 25 22 25 27 26 25 23 18 15 13 13 15 18
0 0 0 0 0 0 0 1 5 8 8 10 15 20 26 35 43 49 52 57 62 64 66 72 74 72 69 65 60 55 52 49 45 45 46 42 32 28 29 30 27 25 23 21 17 14 13 12 12
0 0 0 0 0 0 0 1 4 9 10 12 17 22 27 33 39 43 49 56 61 64 70 75 75 72 69 66 62 60 58 56 53 51 50 46 40 36 33 31 27 24 22 20 17 15 14 12 10
0 0 0 0 0 0 1 2 5 8 11 14 19 24 28 33 38 44 50 58 63 67 74 78 75 71 67 65 64 63 61 60 58 54 50 47 43 39 34 30 26 23 20 19 17 16 14 12 10
Wind_Speed
10 12 10 7 5 3 14 16 15 15 16 15 15 16 18 16 14 15 14 18 20 18 16 14 14 14 14 14 14 14 14 14 14 14 14 15 15 15 15 15 15 16 16 16 16 16 16 16 15
11 13 9 6 1 8 14 14 14 15 15 16 18 20 20 20 18 17 16 17 19 17 15 14 15 14 14 13 13 13 14 14 14 14 14 15 15 15 15 15 15 15 16 16 16 16 16 15 14
13 16 8 3 7 11 14 14 13 13 13 16 19 18 15 15 17 16 16 18 18 17 16 15 15 15 14 13 13 13 13 14 13 13 14 14 14 14 14 14 15 15 15 15 15 15 14 14 12
10 7 5 2 13 14 14 12 12 13 13 16 17 15 15 15 18 17 17 18 18 18 17 15 15 15 14 13 13 13 13 13 13 13 13 14 14 14 14 14 14 14 14 14 14 14 13 12 10
9 6 1 7 13 13 12 12 12 13 16 19 20 18 17 17 19 16 15 17 18 19 16 15 15 14 13 13 13 13 13 13 13 13 13 13 13 13 13 13 14 14 13 13 13 13 12 10 8
7 4 1 6 13 12 11 11 13 14 15 19 20 19 16 17 15 14 14 15 18 18 17 15 15 14 13 13 13 13 13 13 13 13 13 13 12 12 13 13 13 13 13 13 12 12 11 9 6
8 6 1 7 11 11 11 11 13 12 13 15 19 17 14 15 13 13 13 15 17 18 16 14 13 12 13 13 13 13 12 12 12 12 12 12 12 12 12 12 12 12 12 12 11 11 10 8 5
6 5 1 6 11 12 11 11 12 13 13 12 15 13 15 16 15 14 12 14 16 15 15 14 13 12 11 11 12 12 12 12 12 11 11 11 11 11 12 11 11 12 11 11 11 10 9 6 3
7 4 2 6 9 11 11 12 13 14 10 10 13 19 20 19 17 14 12 13 12 13 12 13 13 11 11 11 12 11 12 11 11 9 10 9 7 8 8 11 11 10 10 10 9 9 8 6 4
4 2 5 7 8 8 10 11 11 11 11 14 17 21 20 18 16 14 13 14 13 12 12 11 11 11 10 10 9 7 8 8 6 6 7 4 3 4 8 10 10 9 9 8 8 8 7 6 4
3 1 3 5 7 5 7 8 8 10 11 15 19 21 20 18 15 13 12 12 12 10 10 11 8 7 9 8 7 4 5 5 5 6 5 4 4 5 6 4 5 5 7 5 7 6 5 5 3
5 1 2 4 6 4 4 5 8 9 12 17 19 20 19 18 15 14 12 12 12 10 10 11 9 4 5 6 6 5 5 4 4 5 5 4 2 3 4 3 4 4 3 3 3 2 3 2 1
6 3 1 1 2 3 2 4 7 11 15 17 20 19 18 17 15 14 13 13 12 9 9 10 8 6 4 4 2 4 5 5 5 4 3 4 3 3 3 2 2 3 3 3 2 1 1 1 0
5 5 4 4 3 3 3 4 6 12 15 17 18 17 16 16 16 14 13 13 12 11 10 10 9 7 5 3 1 2 4 4 5 4 4 3 3 3 3 2 1 2 2 2 2 2 2 1 1
7 7 8 8 6 5 4 4 7 12 14 16 16 16 16 15 15 15 14 12 13 11 10 10 8 8 6 5 4 3 3 5 4 4 4 3 3 4 3 3 2 2 2 2 1 1 2 2 2
10 11 11 10 8 7 6 4 7 12 13 14 15 15 15 14 15 14 14 12 12 11 10 10 10 10 7 4 3 2 2 4 4 4 4 4 3 4 3 3 3 3 2 3 2 2 1 1 1
12 13 12 10 10 7 7 5 8 10 12 13 14 15 15 14 14 14 15 13 12 11 10 8 8 10 9 6 3 2 1 2 3 4 4 4 4 4 3 1 2 2 2 2 3 2 1 1 1
11 12 12 10 10 8 7 6 7 10 10 12 14 15 15 16 15 15 15 14 12 11 10 9 7 8 8 6 4 2 2 2 2 2 3 5 4 4 3 2 3 3 2 2 1 2 1 1 2
12 10 10 7 6 6 7 7 7 8 9 11 12 14 15 15 16 15 15 14 14 12 11 10 9 8 6 5 5 4 4 3 2 3 4 5 4 4 3 2 3 3 2 2 3 2 2 3 2
14 13 12 6 6 6 7 9 9 10 11 11 12 13 15 15 16 16 14 14 14 12 12 11 10 9 8 6 4 4 4 3 4 3 5 5 5 5 5 4 3 4 2 2 3 2 2 3 2
15 14 12 9 6 7 10 12 12 12 11 12 13 13 14 16 17 17 16 14 14 14 13 12 11 10 9 7 5 4 3 2 3 4 4 5 6 6 5 4 4 3 4 3 4 4 4 3 2
13 13 12 10 8 8 11 10 11 13 13 12 11 12 13 14 17 17 16 15 14 14 13 11 11 10 9 8 7 7 6 5 5 4 4 6 6 6 6 5 5 4 4 3 5 5 4 4 3
13 10 10 12 11 11 12 12 8 12 13 13 13 13 12 13 15 17 17 15 14 14 13 11 10 10 10 9 8 7 6 5 3 4 5 5 5 6 6 6 5 5 4 4 4 3 3 3 3
12 10 9 11 10 13 14 12 9 8 11 11 11 12 12 12 14 15 16 14 13 13 12 12 11 10 10 10 9 8 7 6 5 6 5 5 4 5 6 6 5 5 5 4 4 3 4 3 3
14 10 8 10 10 12 12 12 6 5 6 7 8 10 12 12 13 14 15 15 13 12 12 11 12 10 10 10 9 8 7 7 7 6 5 5 4 4 5 6 5 4 5 5 4 4 4 5 5
15 16 11 9 9 9 12 11 7 6 5 5 5 6 8 11 11 13 14 14 13 13 12 11 12 11 10 10 8 7 7 6 6 6 5 5 4 4 5 5 5 5 5 6 5 4 5 4 4
17 16 17 14 13 10 9 11 9 8 6 7 6 6 7 8 9 11 13 13 13 13 12 12 12 10 10 9 8 7 7 6 6 5 5 4 4 4 5 5 5 5 5 5 5 4 4 4 4
17 16 12 12 10 11 10 10 8 12 10 8 7 7 7 7 8 10 10 11 10 11 10 10 10 10 9 9 8 7 7 6 4 4 5 4 4 3 3 4 3 4 4 4 4 3 3 3 3
17 17 14 10 10 11 8 3 3 9 9 8 7 6 7 7 8 8 8 9 9 9 10 9 9 9 8 8 7 5 6 6 5 4 3 3 3 3 2 3 3 3 3 2 2 2 2 3 3
16 16 15 11 9 10 9 3 3 6 8 8 6 6 6 6 6 7 8 8 7 7 8 9 8 8 8 7 6 5 4 4 4 4 3 3 3 2 2 2 2 2 2 2 2 2 1 1 1
Wind_Direction
273 257 240 253 248 86 71 70 73 73 68 61 60 70 63 61 79 95 112 111 109 110 111 107 102 102 102 102 101 101 99 98 96 95 94 95 95 95 95 95 95 95 95 95 95 96 97 98 99
281 273 250 243 282 77 75 76 73 73 77 76 69 72 74 76 89 104 111 111 113 117 115 108 108 107 106 106 105 104 103 102 101 99 98 98 97 96 97 97 97 97 96 97 98 98 99 100 101
273 265 267 235 70 74 78 79 82 83 82 86 78 69 75 91 100 106 115 117 114 109 107 110 112 110 108 107 106 106 106 105 104 102 101 100 100 99 98 98 96 96 97 98 99 100 100 102 104
270 261 245 73 78 77 82 87 90 89 84 86 87 82 81 92 103 113 123 118 114 111 110 113 114 113 111 109 108 108 108 108 106 105 104 103 101 100 101 101 100 99 98 98 100 100 101 103 105
256 264 307 85 88 84 84 89 88 85 85 84 88 94 93 98 110 122 123 122 115 111 114 116 115 114 112 111 110 110 110 110 109 109 107 105 104 103 103 102 103 103 101 101 102 102 102 104 102
276 270 68 93 92 88 85 87 89 89 95 103 105 102 103 114 122 129 124 119 116 116 115 118 117 118 115 114 113 113 113 112 113 112 110 109 109 107 104 103 105 105 104 105 105 104 105 104 98
269 284 150 112 104 94 88 88 89 90 94 101 108 111 119 126 132 125 123 120 117 117 122 128 128 123 120 119 118 117 116 116 117 117 116 116 117 115 111 108 108 108 109 111 111 110 110 109 103
276 293 279 115 105 98 93 88 88 91 85 104 122 123 136 138 138 130 127 118 119 122 129 132 133 133 134 126 125 123 123 123 123 126 128 127 125 123 122 117 114 115 116 119 119 119 120 125 131
278 286 29 64 96 101 106 102 97 97 96 78 84 119 137 143 140 137 132 123 121 125 130 131 135 145 142 135 132 135 132 132 135 138 142 146 146 138 139 117 123 125 126 129 132 135 139 150 181
263 316 55 59 77 103 110 112 114 110 108 98 100 118 134 145 144 145 144 137 132 133 137 135 141 151 146 134 139 151 147 147 160 147 160 171 139 128 121 126 133 136 140 143 148 155 166 187 195
275 28 69 94 88 88 106 119 121 122 129 127 129 136 146 149 148 152 151 139 134 142 141 134 141 147 139 135 155 154 139 151 158 149 155 150 138 132 128 144 144 153 164 170 158 178 198 205 202
265 346 46 72 90 102 99 110 103 102 109 128 137 144 150 154 156 158 150 139 142 154 144 137 136 126 120 134 144 146 144 152 145 151 165 146 145 146 147 160 160 170 173 168 175 195 201 189 142
249 250 176 122 140 108 130 113 102 104 112 125 136 146 156 158 158 158 153 148 149 153 142 130 136 130 109 97 143 146 140 147 137 145 152 147 148 138 131 122 151 164 163 168 177 164 143 97 82
261 257 238 214 179 168 183 154 135 122 123 130 141 152 162 160 160 158 156 153 156 162 149 139 143 133 125 131 134 128 134 128 136 143 150 160 141 127 130 143 160 159 157 148 163 161 144 161 231
264 255 239 219 197 189 206 191 155 135 136 143 151 159 164 162 163 163 160 160 162 162 149 144 149 145 153 165 184 163 150 148 142 135 147 161 145 139 153 160 178 176 151 137 150 175 172 189 205
240 240 239 212 200 183 205 196 165 146 149 152 159 162 165 164 168 164 159 163 159 157 151 159 164 154 163 174 193 181 160 137 138 141 148 162 153 160 173 177 185 162 162 159 179 209 191 190 202
228 231 231 208 191 190 209 204 165 164 159 158 164 165 167 168 174 164 164 167 160 154 153 163 159 155 166 171 177 204 124 115 139 150 152 164 172 174 195 181 138 172 184 186 194 152 187 196 214
227 227 229 215 178 199 218 215 186 179 171 170 170 169 171 176 177 168 168 167 159 155 155 162 164 157 161 165 170 197 170 155 166 159 150 162 180 184 198 187 176 211 201 190 161 149 192 232 237
254 255 249 220 172 202 223 218 204 194 182 178 177 175 177 179 176 169 171 168 162 160 161 164 172 164 166 172 180 185 179 178 183 189 164 172 197 188 206 220 174 216 220 197 188 187 205 226 231
253 255 259 237 185 206 234 224 209 211 196 187 185 184 182 177 174 170 173 171 167 166 167 170 176 173 180 181 184 185 173 180 190 198 170 183 196 198 203 213 207 206 214 217 220 206 228 244 215
241 247 251 254 211 216 240 234 215 210 206 192 186 188 188 179 175 173 175 176 174 174 175 178 179 177 186 181 177 187 167 197 193 182 182 194 196 204 219 201 220 215 215 205 213 214 219 243 250
236 241 250 255 244 239 233 246 213 204 202 196 191 189 191 182 175 174 176 179 180 178 178 177 176 178 183 184 187 189 190 199 201 188 190 194 200 206 210 211 216 223 233 211 216 214 214 222 246
238 241 244 251 249 253 245 247 231 201 202 198 195 193 188 181 177 174 179 179 180 180 178 177 175 181 183 190 192 197 203 204 203 195 196 196 200 210 213 208 211 217 230 228 233 224 220 222 232
233 236 238 247 250 245 246 250 248 216 206 203 192 185 182 182 177 173 175 172 178 179 178 176 176 183 184 191 196 198 205 205 205 204 197 198 202 209 215 214 205 212 224 229 231 226 223 230 243
219 218 215 220 228 239 241 241 235 216 193 192 190 184 180 181 176 170 169 170 175 179 177 174 174 182 185 191 198 197 201 206 212 211 204 201 209 209 211 216 207 215 223 224 225 222 225 223 229
212 217 223 227 226 239 230 230 218 196 175 173 172 178 176 175 172 171 169 169 176 179 177 175 174 180 185 190 195 196 200 207 212 211 211 202 211 221 208 206 207 216 224 227 220 225 225 223 225
211 221 235 251 267 260 231 215 192 170 175 180 176 172 177 175 171 167 168 170 177 177 177 177 174 177 182 188 191 194 200 209 214 204 207 213 210 222 205 203 210 214 220 228 222 224 226 219 221
227 217 230 245 263 269 256 222 199 169 177 179 175 175 171 169 168 166 167 167 167 169 172 171 170 175 180 186 193 196 198 207 210 203 201 209 212 226 211 196 208 221 223 226 227 230 227 220 226
219 222 228 237 246 255 264 277 166 163 166 168 169 163 156 166 166 162 159 153 154 162 163 162 167 168 176 188 191 195 193 198 200 199 205 204 208 212 205 189 207 212 215 214 219 232 226 227 237
220 225 223 231 238 256 267 260 79 136 145 145 147 131 123 129 138 142 138 138 144 152 159 164 170 171 174 179 178 186 186 182 186 193 200 198 199 197 190 174 180 185 194 196 200 226 223 219 232